﻿METLOCID,DATE_TIME,AVG_AIRT3M,STDDEV_AIRT3M,MIN_AIRT3M,MAX_AIRT3M,N_AIRT3M,AVG_AIRT1M,STDDEV_AIRT1M,MIN_AIRT1M,MAX_AIRT1M,N_AIRT1M
COHM,11/1/93,-7.657826087,1.226858578,-10.4,-5.08,69,,,,,0
COHM,12/1/93,-6.445482709,2.774510509,-11.85,0.69,1388,,,,,0
COHM,1/1/94,-3.39872434,2.237585621,-12.57,4.02,682,,,,,0
COHM,2/1/94,-13.07446512,4.564584162,-22.66,-4.23,215,,,,,0
COHM,3/1/94,-22.9091129,3.621767192,-31,-13.82,248,,,,,0
COHM,4/1/94,-19.01620833,5.115520256,-31.34,-9.44,240,,,,,0
COHM,5/1/94,-28.84825203,4.74555016,-38.13,-16.81,246,,,,,0
COHM,6/1/94,-23.878,5.435578378,-36.51,-12.25,240,,,,,0
COHM,7/1/94,-25.39834677,7.235145615,-38.1,-5.82,248,,,,,0
COHM,8/1/94,-28.75681452,5.783712641,-38.82,-14.04,248,,,,,0
COHM,9/1/94,-28.16308824,6.653203977,-38.55,-15.59,68,,,,,0
COHM,11/1/94,-12.0998773,2.010242347,-16.82,-4.22,978,,,,,0
COHM,12/1/94,-5.729242832,2.350450086,-13.46,1.16,2232,,,,,0
COHM,1/1/95,-5.853454464,1.932314126,-11.29,1.07,2229,,,,,0
COHM,2/1/95,-9.719315476,4.422420054,-19.87,2.1,2016,,,,,0
COHM,3/1/95,-20.62551771,4.840188484,-31.22,-8.69,2231,,,,,0
COHM,4/1/95,-25.98479167,6.145491715,-37.84,-10.84,2160,,,,,0
COHM,5/1/95,-26.92791219,5.512855929,-37.47,-11.79,2232,,,,,0
COHM,6/1/95,-24.38255556,5.783512009,-35.27,-5.87,2160,,,,,0
COHM,7/1/95,-25.82484319,4.166597531,-34.19,-10.37,2232,,,,,0
COHM,8/1/95,-24.95079301,5.785364171,-35.95,-7.26,2232,,,,,0
COHM,9/1/95,-25.75700463,7.687144726,-39.98,-11.36,2160,,,,,0
COHM,10/1/95,-18.96030018,4.363318776,-29.38,-8.54,2232,,,,,0
COHM,11/1/95,-9.703099598,5.249887691,-26.55,1.36,2239,,,,,0
COHM,12/1/95,-3.428162508,2.422215958,-9.96,6.03,2966,,,,,0
COHM,1/1/96,-4.77470074,2.29697942,-10.75,4,2974,,,,,0
COHM,2/1/96,-9.483951149,5.100841734,-20.95,3.45,2784,,,,,0
COHM,3/1/96,-18.19162298,4.945179459,-28.04,1.3,2976,,,,,0
COHM,4/1/96,-18.50892014,5.43146105,-29.67,-4.23,2880,,,,,0
COHM,5/1/96,-24.62448589,5.694825291,-36.06,-11.11,2976,,,,,0
COHM,6/1/96,-25.48510417,5.410756335,-35.67,-9.14,2880,,,,,0
COHM,7/1/96,-25.98986223,5.460875845,-37.65,-9.58,2976,,,,,0
COHM,8/1/96,-20.22650874,6.484921552,-33.93,-0.39,2976,,,,,0
COHM,9/1/96,-24.02986458,3.164989249,-32.18,-13.84,2880,,,,,0
COHM,10/1/96,-20.64048051,4.634705347,-31.7,-9.51,2976,,,,,0
COHM,11/1/96,-12.69077099,5.343932733,-24.33,1.72,1310,,,,,0
COHM,12/1/96,-3.430954907,2.108289983,-9.94,6.31,2639,,,,,0
COHM,1/1/97,-4.744962495,2.451006686,-9.94,5.06,2533,,,,,0
COHM,5/1/97,-21.56193591,4.309325681,-29.64,-8.64,749,,,,,0
COHM,6/1/97,-23.38798767,5.028073676,-35.05,-9.64,1784,,,,,0
COHM,11/1/97,-6.509045802,2.975975995,-12.61,-0.39,524,,,,,0
COHM,12/1/97,-5.756360887,3.21661081,-13.07,2.92,2976,,,,,0
COHM,1/1/98,-6.030341678,2.48647472,-13.22,0.74,2956,,,,,0
COHM,2/1/98,-9.697072173,3.574998151,-18.63,0.74,2688,,,,,0
COHM,3/1/98,-19.85180444,4.081794885,-32.32,-10.12,2976,,,,,0
COHM,4/1/98,-27.40188542,5.739635686,-38.76,-10.82,2880,,,,,0
COHM,5/1/98,-23.9293246,5.74020448,-35.91,-6.62,2976,,,,,0
COHM,6/1/98,-18.73322917,4.375489103,-32.03,-8.23,2880,,,,,0
COHM,7/1/98,-25.26993952,5.720214728,-35.94,-11.47,2976,,,,,0
COHM,8/1/98,-25.22308468,5.401378563,-35.76,-11.98,2976,,,,,0
COHM,9/1/98,-28.58847917,6.14266259,-37.61,-5.51,2880,,,,,0
COHM,10/1/98,-18.11415236,5.273170832,-27.94,-4.21,2796,,,,,0
COHM,11/1/98,-10.45297906,2.996272606,-18.47,-0.1,1910,,,,,0
COHM,12/1/98,-4.942221102,3.04638807,-13.75,3.48,2976,,,,,0
COHM,1/1/99,-3.696612903,2.384055217,-9.41,4.39,2976,,,,,0
COHM,2/1/99,-10.72807664,4.521098715,-22.21,-0.57,2688,,,,,0
COHM,3/1/99,-19.88872312,4.228685242,-29.03,-8.82,2976,,,,,0
COHM,4/1/99,-25.67698958,5.654632088,-35.05,-9.94,2880,,,,,0
COHM,5/1/99,-26.02339046,5.949416747,-39.07,-10.44,2976,,,,,0
COHM,6/1/99,-22.3906875,5.53257616,-33.38,-7.82,2880,,,,,0
COHM,7/1/99,-22.31168347,6.572755412,-35.8,-9.64,2976,,,,,0
COHM,8/1/99,-27.39865927,5.121370941,-36.47,-12.92,2976,,,,,0
COHM,9/1/99,-21.23438194,5.479003533,-33.73,-4.12,2880,,,,,0
COHM,10/1/99,-17.53820565,4.357962619,-29.33,-3.97,2976,,,,,0
COHM,11/1/99,-8.841503472,3.701530648,-19.3,-0.01,2880,,,,,0
COHM,12/1/99,-5.009586694,1.67396742,-10.08,-0.55,2976,,,,,0
COHM,1/1/00,-5.751293683,2.256431981,-14.16,0.29,2976,,,,,0
COHM,2/1/00,-11.42702945,3.488135866,-21.32,-2.08,2784,,,,,0
COHM,3/1/00,-17.35868616,3.875772641,-27.98,-6.07,2976,,,,,0
COHM,4/1/00,-20.36798611,5.23756426,-31.7,-4.43,2880,,,,,0
COHM,5/1/00,-23.6612668,6.15445802,-37.98,-9.41,2976,,,,,0
COHM,6/1/00,-24.51235069,7.42408963,-36.8,-3.53,2880,,,,,0
COHM,7/1/00,-23.86660282,6.60116368,-38.47,-7.53,2976,,,,,0
COHM,8/1/00,-25.33016129,6.174024789,-35.57,-8.85,2976,,,,,0
COHM,9/1/00,-24.85855556,6.751669743,-37.72,-8.1,2880,,,,,0
COHM,10/1/00,-21.78365591,5.107847797,-32.87,-7.7,2976,,,,,0
COHM,11/1/00,-8.561041667,5.085497981,-25.56,0.96,2880,,,,,0
COHM,12/1/00,-6.091286962,1.791491372,-10.43,-0.35,2976,,,,,0
COHM,1/1/01,-7.64890457,2.172581552,-13.1,0.27,2976,,,,,0
COHM,2/1/01,-9.446469494,3.007816117,-18.48,2.55,2688,,,,,0
COHM,3/1/01,-20.4927957,4.921215561,-28.64,-1.81,2976,,,,,0
COHM,4/1/01,-22.86773611,5.31419606,-33.22,-8.1,2880,,,,,0
COHM,5/1/01,-23.11455645,6.916092529,-34.41,-6.07,2976,,,,,0
COHM,6/1/01,-22.22597222,6.125670312,-33.82,-6.8,2880,,,,,0
COHM,7/1/01,-23.50979839,5.676182753,-37.21,-9.1,2976,,,,,0
COHM,8/1/01,-30.9534207,5.139693748,-41.93,-18.34,2976,,,,,0
COHM,9/1/01,-23.43142361,5.346708543,-36.61,-8.72,2880,,,,,0
COHM,10/1/01,-19.27383065,5.607009441,-30.03,-5.89,2976,,,,,0
COHM,11/1/01,-10.20533356,3.83615112,-21.31,-0.85,2878,,,,,0
COHM,12/1/01,-2.829092742,3.192557245,-11.77,6.51,2976,,,,,0
COHM,1/1/02,-2.860638441,3.284764156,-10.05,7.76,2976,,,,,0
COHM,2/1/02,-9.269784226,3.856019151,-17.37,-0.51,2688,,,,,0
COHM,3/1/02,-17.16609207,4.37063733,-27.85,-8.31,2976,,,,,0
COHM,4/1/02,-22.23184028,5.191535421,-30.99,-8.24,2880,,,,,0
COHM,5/1/02,-19.94194892,5.653800402,-32.48,-5.36,2976,,,,,0
COHM,6/1/02,-28.36842014,6.074831739,-38.49,-10.18,2880,,,,,0
COHM,7/1/02,-27.67478495,4.629753634,-39.13,-14.75,2976,,,,,0
COHM,8/1/02,-29.63537298,5.683633634,-40.94,-12.47,2976,,,,,0
COHM,9/1/02,-22.39762153,5.245968538,-32.92,-6.27,2880,,,,,0
COHM,10/1/02,-18.43220766,3.646412092,-27.74,-7.23,2976,,,,,0
COHM,11/1/02,-12.52957292,2.525424603,-18.85,-2.78,2880,,,,,0
COHM,12/1/02,-6.528231933,2.919449153,-15.31,1.62,2975,,,,,0
COHM,1/1/03,-3.497631048,2.943768168,-10.13,4.22,2976,,,,,0
COHM,2/1/03,-9.818630952,2.721774304,-16.25,-1.66,2688,,,,,0
COHM,3/1/03,-18.94556116,4.821549284,-29.22,-7.45,2976,,,,,0
COHM,4/1/03,-23.36723958,4.319745321,-30.55,-5.12,2880,,,,,0
COHM,5/1/03,-20.35986895,6.451451592,-30.91,-1.99,2976,,,,,0
COHM,6/1/03,-23.9976875,4.657592889,-33.54,-9.92,2880,,,,,0
COHM,7/1/03,-23.03782258,4.633332485,-39.27,-12.49,2976,,,,,0
COHM,8/1/03,-28.21890457,4.305881599,-36.29,-14.96,2976,,,,,0
COHM,9/1/03,-23.53472917,6.070655186,-35.05,-11.29,2880,,,,,0
COHM,10/1/03,-17.18761425,3.676397536,-28.53,-7.49,2976,,,,,0
COHM,11/1/03,-11.74030903,2.967791489,-20,-1.25,2880,,,,,0
COHM,12/1/03,-4.114012097,2.962837278,-11.35,5.82,2976,,,,,0
COHM,1/1/04,-5.658716398,2.738984974,-12.65,5.09,2976,,,,,0
COHM,2/1/04,-11.16533046,3.078843592,-19.3,-3.21,2784,,,,,0
COHM,3/1/04,-22.34159946,4.278764189,-30.71,-11.07,2976,,,,,0
COHM,4/1/04,-21.84297569,4.383892911,-32.99,-11.92,2880,,,,,0
COHM,5/1/04,-25.70790995,6.375905359,-36.35,-5.84,2976,,,,,0
COHM,6/1/04,-23.06090972,6.367702742,-38.28,-4.43,2880,,,,,0
COHM,7/1/04,-33.88717742,5.025477794,-44.83,-11.86,2976,,,,,0
COHM,8/1/04,-28.61043683,4.87785165,-38.26,-9.64,2976,,,,,0
COHM,9/1/04,-26.36621875,4.335335485,-36.65,-14.32,2880,,,,,0
COHM,10/1/04,-19.02182124,5.271723145,-34.63,-6.9,2976,,,,,0
COHM,11/1/04,-8.524545139,4.157819368,-18.44,1.02,2880,,,,,0
COHM,12/1/04,-3.08984207,1.775652876,-10.29,6.55,2976,,,,,0
COHM,1/1/05,-4.17750672,2.877300468,-12.45,5.29,2976,,,,,0
COHM,2/1/05,-10.66011905,3.915479817,-21.7,-1.1,2688,,,,,0
COHM,3/1/05,-19.05563172,3.134982686,-26.6,-8.17,2976,,,,,0
COHM,4/1/05,-24.64889236,4.745421324,-35.21,-14.07,2880,,,,,0
COHM,5/1/05,-21.76341734,5.50799212,-34.21,-9,2976,,,,,0
COHM,6/1/05,-25.93575694,6.079554652,-38.34,-5.6,2880,,,,,0
COHM,7/1/05,-25.31436156,6.720434699,-38.36,-5.24,2976,,,,,0
COHM,8/1/05,-28.3987836,6.417011184,-45.03,-10.72,2976,,,,,0
COHM,9/1/05,-23.31212153,6.103847998,-35.48,-5.37,2880,,,,,0
COHM,10/1/05,-18.16649866,6.029570692,-31.31,-5.72,2976,,,,,0
COHM,11/1/05,-10.46475,2.763963923,-17.84,-3.51,2880,,,,,0
COHM,12/1/05,-3.378672715,1.994908381,-11.17,3.16,2976,,,,,0
COHM,1/1/06,-4.498191597,2.174763557,-10.2,4.85,2975,,,,,0
COHM,2/1/06,-10.05041295,2.898105309,-19.31,-3.85,2688,,,,,0
COHM,3/1/06,-18.81743616,3.320268985,-26.7,-8.88,2976,,,,,0
COHM,4/1/06,-25.57148611,4.667106703,-37.26,-14.25,2880,,,,,0
COHM,5/1/06,-27.99966398,7.299444958,-39.5,-4.2,2976,,,,,0
COHM,6/1/06,-22.65727083,7.809401583,-36.79,-5.77,2880,,,,,0
COHM,7/1/06,-29.58464046,4.168105001,-38.65,-14.23,2976,,,,,0
COHM,8/1/06,-19.96466398,4.906558761,-29.49,-7.62,2976,,,,,0
COHM,9/1/06,-23.29969792,6.862854479,-34.94,-7.15,2880,,,,,0
COHM,10/1/06,-20.68763777,4.196170262,-31.43,-8.93,2976,,,,,0
COHM,11/1/06,-10.53423611,4.67600624,-22.66,-1.54,2880,,,,,0
COHM,12/1/06,-6.530104167,2.806573357,-12.79,1.16,2976,,,,,0
COHM,1/1/07,-2.197056452,1.883794848,-7.45,4.68,2976,,,,,0
COHM,2/1/07,-11.54388765,4.505396081,-22.14,-2.02,2688,,,,,0
COHM,3/1/07,-18.72905242,4.941749893,-28.71,-4.99,2976,,,,,0
COHM,4/1/07,-22.88691319,5.482464238,-34.25,-9.38,2880,,,,,0
COHM,5/1/07,-19.68206317,6.006764778,-32.29,-7,2976,,,,,0
COHM,6/1/07,-21.26314931,6.414442412,-35.48,-5.13,2880,,,,,0
COHM,7/1/07,-23.36749664,5.711753868,-35.44,-7.15,2976,,,,,0
COHM,8/1/07,-23.91017809,5.62067748,-34.86,-4.38,2976,,,,,0
COHM,9/1/07,-21.69273611,4.199669566,-31,-6.61,2880,,,,,0
COHM,10/1/07,-20.72902218,4.828633123,-34.79,-10.04,2976,,,,,0
COHM,11/1/07,-11.09464583,4.984892217,-27.76,-1.67,2880,,,,,0
COHM,12/1/07,-4.610325941,3.635291838,-14.26,4.24,2976,,,,,0
COHM,1/1/08,-4.378649194,2.518416961,-11.27,3.38,2976,,,,,0
COHM,2/1/08,-12.37531968,3.546425494,-20.76,-3.38,2784,,,,,0
COHM,3/1/08,-17.89648858,6.006048912,-30.39,-1.11,2976,,,,,0
COHM,4/1/08,-19.54947917,4.645403238,-28.7,-7.61,2880,,,,,0
COHM,5/1/08,-23.72068548,5.3096279,-33.46,-7.03,2976,,,,,0
COHM,6/1/08,-19.22022569,5.612465841,-31.13,-5.18,2880,,,,,0
COHM,7/1/08,-27.78051411,5.756974588,-36.53,-10.86,2976,,,,,0
COHM,8/1/08,-31.07572245,4.717295908,-42.86,-14.42,2976,,,,,0
COHM,9/1/08,-20.25309028,5.596314382,-38.14,-8.67,2880,,,,,0
COHM,10/1/08,-18.5675336,3.71021965,-27.65,-9.64,2976,,,,,0
COHM,11/1/08,-12.19923611,3.863660748,-20.76,-1.97,2880,,,,,0
COHM,12/1/08,-4.214969758,2.573300415,-11.43,3.42,2976,,,,,0
COHM,1/1/09,-4.458981855,2.227567888,-9.72,5.42,2976,,,,,0
COHM,2/1/09,-12.92946801,5.063444055,-23.87,-1.93,2688,,,,,0
COHM,3/1/09,-20.42823589,4.317729603,-30.19,-7.38,2976,,,,,0
COHM,4/1/09,-19.00921528,4.61234996,-29.92,-7.21,2880,,,,,0
COHM,5/1/09,-24.18300739,6.629573858,-36.79,-9.21,2976,,,,,0
COHM,6/1/09,-23.48876736,6.574473195,-38.66,-7.38,2880,,,,,0
COHM,7/1/09,-24.56989583,6.582769667,-36.04,-7.9,2976,,,,,0
COHM,8/1/09,-26.29777554,6.379290961,-38.24,-11.28,2976,,,,,0
COHM,9/1/09,-24.55128125,6.667132995,-40.36,-4.63,2880,,,,,0
COHM,10/1/09,-20.73359207,3.895233126,-32.53,-6.86,2976,,,,,0
COHM,11/1/09,-8.34840625,4.483747424,-19.01,2.22,2880,,,,,0
COHM,12/1/09,-4.769102823,2.20164184,-10.25,3.28,2976,,,,,0
COHM,1/1/10,-4.910302419,2.075780313,-10.69,3.2,2976,,,,,0
COHM,2/1/10,-10.72389509,3.856376935,-21.75,-1.06,2688,,,,,0
COHM,3/1/10,-17.50226815,5.444675499,-32.83,-5.45,2976,,,,,0
COHM,4/1/10,-20.74048958,4.076495534,-30.71,-9.82,2880,,,,,0
COHM,5/1/10,-23.83394825,6.622561035,-38.5,-11.32,2976,,,,,0
COHM,6/1/10,-24.38269444,4.669200701,-32.25,-9.04,2880,,,,,0
COHM,7/1/10,-27.29501344,5.592801544,-44.14,-14.29,2976,,,,,0
COHM,8/1/10,-26.74203629,5.445517341,-38.06,-11.5,2976,,,,,0
COHM,9/1/10,-26.72017361,5.486873949,-37.87,-14.91,2880,,,,,0
COHM,10/1/10,-18.10973118,3.766089044,-27.55,-3.91,2976,,,,,0
COHM,11/1/10,-9.368149306,2.875486581,-18.9,1.74,2880,,,,,0
COHM,12/1/10,-3.338991935,3.192454738,-13.96,6.69,2976,,,,,0
COHM,1/1/11,-5.725332661,3.010345136,-12.98,2.1,2976,,,,,0
COHM,2/1/11,-10.12582961,2.430549532,-16.59,-2.19,2688,,,,,0
COHM,3/1/11,-18.62561828,3.883605579,-28.1,-8.8,2976,,,,,0
COHM,4/1/11,-21.10406597,6.479154398,-33.17,-3.9,2880,,,,,0
COHM,5/1/11,-22.46819892,5.318063183,-33.64,-9.21,2976,,,,,0
COHM,6/1/11,-21.28643403,6.815172831,-33.65,-6.74,2880,,,,,0
COHM,7/1/11,-19.60441868,6.060925015,-36.06,-5.58,2976,,,,,0
COHM,8/1/11,-20.70221774,7.494357231,-35.32,-5.03,2976,,,,,0
COHM,9/1/11,-23.79009028,7.72676853,-38.02,-8.78,2880,,,,,0
COHM,10/1/11,-18.86708669,4.72691674,-29.6,-5.26,2976,,,,,0
COHM,11/1/11,-8.469017361,3.074969803,-23.25,0.06,2880,,,,,0
COHM,12/1/11,-4.524247312,2.743262764,-10.47,5.12,2976,,,,,0
COHM,1/1/12,-5.36703954,2.568868996,-12.42,1.7,2959,-5.790843727,2.52189795,-12.88,0.82,2726
COHM,2/1/12,-9.661289511,4.306090902,-20.84,0.81,2784,-10.05543822,4.391654298,-21.59,0.06,2784
COHM,3/1/12,-18.16318884,4.29467385,-30.15,-7.96,2976,-19.09715726,4.29188802,-31.29,-8.4,2976
COHM,4/1/12,-21.67197569,5.263799036,-31.57,-5.79,2880,-22.64216319,5.379826068,-32.58,-6.39,2880
COHM,5/1/12,-18.31803763,6.209334062,-29.82,-4.52,2976,-18.86574261,6.337314994,-30.71,-5.03,2976
COHM,6/1/12,-25.02745139,5.532065487,-34.29,-9.05,2880,-25.96026736,5.456127055,-34.79,-9.64,2880
COHM,7/1/12,-26.69143481,4.266691197,-36.88,-16.02,2976,-27.74891801,4.244972711,-37.24,-16.6,2976
COHM,8/1/12,-25.83876344,6.450155802,-37.22,-10.56,2976,-26.62238575,6.50843628,-37.97,-11.1,2976
COHM,9/1/12,-23.34916667,4.625892642,-32.44,-13.23,2880,-24.36586806,4.651293367,-33.52,-14.11,2880
COHM,10/1/12,-18.33136761,3.045490946,-26.76,-10.01,2976,-19.07402218,3.193552504,-28.06,-10.73,2976
COHM,11/1/12,-11.07902431,3.790553869,-20.99,-0.84,2880,-11.40404861,3.959551902,-22.66,-1.31,2880
COHM,12/1/12,-3.638706317,2.343013381,-10.3,4.71,2976,-3.813487903,2.307092987,-11.47,3.27,2976
COHM,1/1/13,-4.586219758,2.151370232,-11.94,1.16,2976,-4.959089382,2.276695027,-12.65,1.1,2976
COHM,2/1/13,-11.49640253,3.155337236,-21.92,-3.09,2688,-12.19848586,3.225534182,-24.48,-3.34,2688
COHM,3/1/13,-17.80726478,6.042533737,-34.21,-6.25,2976,-18.81328629,6.039380253,-35.76,-6.65,2976
COHM,4/1/13,-25.57008681,4.754240683,-36.07,-10.97,2880,-27.05160069,4.868599023,-38.6,-11.85,2880
COHM,5/1/13,-21.55856519,5.855166704,-34.74,-8.01,2976,-22.58848118,6.058882259,-36.02,-8.32,2976
COHM,6/1/13,-23.39654514,6.753796527,-39.39,-9.34,2880,-24.66402083,6.780083076,-40.88,-10,2880
COHM,7/1/13,-27.92857863,4.212043608,-37.36,-12.84,2976,-29.1674832,4.231664911,-38.82,-13.13,2976
COHM,8/1/13,-24.6922211,5.671235397,-35.01,-3.82,2976,-26.02738575,5.677237873,-36.31,-5.09,2976
COHM,9/1/13,-19.92344792,5.662772432,-31.22,-2.77,2880,-20.95234028,5.702965117,-33.6,-3.73,2880
COHM,10/1/13,-18.14947581,4.150971634,-28.46,-6.94,2976,-19.20145833,4.340683146,-29.76,-7.74,2976
COHM,11/1/13,-11.05565972,5.236173727,-24.47,0.74,2880,-11.63069792,5.399344489,-24.78,0.01,2880
COHM,12/1/13,-4.192997312,1.994600448,-9.07,1.47,2976,-4.297617608,1.976242731,-8.95,1.14,2976
COHM,1/1/14,-3.131132392,2.487121578,-10.05,2.98,2976,-3.250574597,2.420321704,-10.25,2.15,2976
COHM,2/1/14,-9.851547619,3.748695471,-16.77,-1.09,2688,-9.951573661,3.718223814,-16.91,-1.03,2688
COHM,3/1/14,-19.3200672,4.34016186,-30.75,-9.4,2976,-19.65106519,4.391427353,-30.95,-9.82,2976
COHM,4/1/14,-23.77934375,6.468790086,-36.9,-6.15,2880,-24.44648958,6.416338758,-37.55,-6.68,2880
COHM,5/1/14,-20.01683468,7.13458736,-36.35,-7.18,2976,-20.84206989,7.29510291,-37.72,-7.56,2976
COHM,6/1/14,-25.27734028,4.367570966,-33.4,-11.3,2880,-25.91072917,4.258515718,-33.94,-11.63,2880
COHM,7/1/14,-30.18305444,6.707599627,-38.49,-7.2,2976,-31.07348118,6.687478804,-39.19,-7.63,2976
COHM,8/1/14,-21.33688508,6.296852078,-37.5,-6.97,2976,-21.88543011,6.348498444,-38.01,-7.43,2976
COHM,9/1/14,-18.64328472,5.16192554,-31.54,-6.73,2880,-19.36147222,5.115949838,-31.88,-7.09,2880
COHM,10/1/14,-15.46398858,4.267569184,-28.91,-3.45,2976,-15.85984879,4.249792332,-29.23,-3.79,2976
COHM,11/1/14,-11.4865231,3.077050817,-20.59,-2.66,2879,-11.66436957,3.154015786,-20.88,-3.04,2879
COHM,12/1/14,-6.566344086,2.384935186,-13.65,0.64,2976,-6.646045027,2.355316186,-13.53,0.4,2976
COHM,1/1/15,-4.233797043,2.237457012,-10.22,2.75,2976,-4.510897177,2.353505628,-12.02,2.47,2976
COHM,2/1/15,-7.61594122,3.402471519,-16.22,0.51,2688,-7.950982143,3.475513537,-17.21,-0.09,2688
COHM,3/1/15,-19.60198925,4.251801984,-28,-7.53,2976,-20.60847446,4.453735212,-29.02,-8.06,2976
COHM,4/1/15,-26.36168265,3.718933682,-35.91,-16.52,2294,-27.67022668,3.92181229,-37.74,-17.77,2294
COHM,5/1/15,-25.92221102,4.352043316,-34.24,-12.8,2976,-27.41020497,4.20919365,-35.38,-13.65,2976
COHM,6/1/15,-24.57180208,4.455680123,-35.01,-12.4,2880,-25.60011111,4.567360788,-36.13,-13.02,2880
COHM,7/1/15,-27.56887433,5.433910269,-38.41,-11.17,2976,-28.49502688,5.378435885,-39.22,-11.9,2976
COHM,8/1/15,-26.19311492,5.9252967,-41.16,-11.3,2976,-27.13513441,5.886167929,-41.26,-11.64,2976
COHM,9/1/15,-27.70381255,6.003185917,-40,-12.73,2678,-28.57469007,6.017488244,-40.32,-13.35,2678
COHM,10/1/15,-17.24233535,4.123573708,-28.07,-5.59,2976,-17.64461358,4.096006243,-28.53,-6.13,2976
COHM,11/1/15,-10.48493567,5.589266149,-24.79,0.14,2798,-10.45441744,5.658894985,-24.59,0.05,2798
COHM,12/1/15,-3.846022192,2.371585512,-8.78,5.57,2974,-3.739132482,2.310229577,-9.15,4.96,2974
COHM,1/1/16,-3.368172043,2.500772174,-10.42,3.25,2976,-3.333891129,2.448339718,-10.31,2.49,2976
COHM,2/1/16,-9.540578305,4.485035155,-19.57,1.67,2784,-9.652492816,4.562310505,-19.87,1.58,2784
COHM,3/1/16,-18.95030578,3.848667268,-31.27,-10.99,2976,-19.67129032,3.916542552,-31.9,-11.32,2976
COHM,4/1/16,-28.73502513,2.648723561,-34.71,-22.63,1194,-29.60477387,2.805293283,-35.16,-22.8,1194
COHM,5/1/16,-19.54144748,5.345416428,-28.09,-5.51,1209,-20.22839537,5.429200474,-29.07,-6.11,1209
COHM,6/1/16,-27.38686111,4.018060168,-37.64,-17.13,2880,-28.18532639,4.046670933,-38.71,-17.48,2880
COHM,7/1/16,-29.84737231,5.827581341,-38.88,-12.49,2976,-31.06602151,5.854513297,-40.13,-12.78,2976
COHM,8/1/16,-23.9293414,5.006506849,-38.44,-7.83,2976,-24.91909274,5.139521926,-38.25,-8.43,2976
COHM,9/1/16,-26.27435069,5.93366647,-37.15,-12.38,2880,-27.40361111,5.953725249,-37.7,-12.52,2880
COHM,10/1/16,-20.56632757,3.54993372,-29.79,-8.66,2949,-21.12069176,3.593830987,-29.94,-8.75,2949
COHM,11/1/16,-10.3795625,3.443391749,-21.05,1.22,2880,-10.68957986,3.518766963,-22.84,1.08,2880
COHM,12/1/16,-4.85468414,2.930069406,-13.94,7.12,2976,-5.17093078,2.97536875,-13.89,7.55,2976
COHM,1/1/17,-4.344331317,2.277161529,-10.71,3.49,2976,-4.503235887,2.280620654,-10.69,3.2,2976
COHM,2/1/17,-10.01562128,3.815690374,-18.4,0.57,2688,-10.34319196,3.907783127,-18.89,0.25,2688
COHM,3/1/17,-17.16070565,3.962055409,-26.77,-7.55,2976,-17.85702285,4.045747157,-28.16,-7.96,2976
COHM,4/1/17,-20.7559375,4.035056319,-31.24,-11.12,2880,-21.87977778,4.061401494,-32.22,-11.59,2880
COHM,5/1/17,-19.18783938,4.763416541,-29.76,-6.93,2976,-19.95464718,4.837264983,-30.34,-7.18,2976
COHM,6/1/17,-24.76874653,6.737713173,-36.63,-9.13,2880,-25.52141667,6.817537563,-37.4,-9.91,2880
COHM,7/1/17,-25.38682796,5.330948305,-36.64,-9.62,2976,-26.34863575,5.359619046,-37.18,-10.55,2976
COHM,8/1/17,-23.37946237,6.217518631,-34.26,-7.12,2976,-24.12508065,6.423832778,-34.86,-7.75,2976
COHM,9/1/17,-26.82513194,4.518557196,-36.78,-12.38,2880,-27.99134375,4.498790278,-37.42,-13.67,2880
COHM,10/1/17,-16.68292003,5.003473682,-30.64,-7.05,2976,-17.28302083,5.001910988,-31.07,-7.59,2976
COHM,11/1/17,-11.79333217,4.455717808,-20.98,-1.55,2875,-11.96619478,4.552983894,-21.72,-2.42,2875
COHM,12/1/17,-6.37202957,2.129884468,-13.63,4.4,2976,-6.366139113,2.124479312,-14,4.78,2976
COHM,1/1/18,-4.84827621,2.421896434,-12.63,0.9,2976,-5.099828629,2.553836528,-14.54,0.77,2976
COHM,2/1/18,-11.69040923,3.428369544,-23.21,-2.53,2688,-12.27490327,3.564957981,-25.06,-2.62,2688
COHM,3/1/18,-15.69721774,4.228904889,-28.55,-3.72,2976,-16.74165659,4.398577277,-30.27,-4.55,2976
COHM,4/1/18,-20.31604861,5.61880695,-33.49,-6.79,2880,-21.56518056,5.643369442,-34.16,-7.12,2880
COHM,5/1/18,-23.95362903,5.308432062,-32.92,-9.02,2976,-25.2036828,5.494522988,-34.03,-9.39,2976
COHM,6/1/18,-20.62300694,4.736886975,-30.93,-9.65,2880,-21.5075,4.935450097,-32.41,-9.98,2880
COHM,7/1/18,-24.20629368,6.598505449,-38.7,-10.94,2976,-25.43048051,6.954915858,-40.87,-11.55,2976
COHM,8/1/18,-24.81510081,7.042005238,-34.82,-4.72,2976,-25.91275874,7.044161381,-35.68,-5.27,2976
COHM,9/1/18,-25.41392014,5.116321269,-36.49,-10.64,2880,-26.33088889,5.325175167,-38.32,-11.05,2880
COHM,10/1/18,-15.57726815,5.853215492,-27.98,-1.77,2976,-16.08364247,5.840145178,-28.97,-2.29,2976
COHM,11/1/18,-9.396107242,3.748529329,-20,0.67,2872,-9.528955432,3.759340082,-20.29,0.63,2872
COHM,12/1/18,-3.501405514,2.608698013,-10.53,4.21,2974,-3.488130464,2.528467108,-10.5,4.39,2974
COHM,1/1/19,-5.103494624,1.938279047,-9.72,0.6,2976,-5.158971774,2.005841474,-10.2,1.17,2976
COHM,2/1/19,-9.102087054,2.722178985,-17.26,-2.87,2688,-9.472135417,2.929097758,-18.14,-2.89,2688
COHM,3/1/19,-16.92799395,4.508299757,-27.37,-5.2,2976,-17.80279234,4.752485633,-28.74,-5.8,2976
COHM,4/1/19,-20.97668403,6.802647035,-35.12,-7.5,2880,-22.23622917,7.110993716,-36.25,-7.77,2880
COHM,5/1/19,-18.90732191,4.538726248,-27.76,-9.87,2976,-19.78199261,4.729851643,-28.6,-10.22,2976
COHM,6/1/19,-24.78653472,7.291261896,-39.64,-10.07,2880,-25.59869792,7.508176227,-40.46,-10.48,2880
COHM,7/1/19,-21.81465726,7.629294582,-34.8,-1.2,2976,-22.7575504,7.697669014,-35.86,-1.92,2976
COHM,8/1/19,-23.60089382,7.866506179,-39.22,-9.77,2976,-24.47532594,7.933315665,-39.67,-10.11,2976
COHM,9/1/19,-23.65408333,4.900540506,-32.77,-11.79,2880,-24.62562153,5.004683846,-34.03,-12.12,2880
COHM,10/1/19,-18.64244624,3.715164861,-27.01,-10.67,2976,-19.10658602,3.807512808,-27.94,-10.36,2976
COHM,11/1/19,-8.740788194,3.655541498,-18.4,-0.95,2880,-8.870090278,3.71264556,-18.24,-0.81,2880
COHM,12/1/19,-4.594194035,2.20399984,-10.06,2.98,2649,-4.754952812,2.198270006,-10,3.49,2649